Regional Weather Roundup
Issued by NWS

Home | Current Version | Previous Version | Text Only | Print | Product List | Glossary On
Versions: 1 2 3 4 5 6 7 8 9 10 11 12 13 14 15 16 17 18 19 20 21 22 23 24 25 26 27 28 29 30 31 32 33 34 35 36 37 38 39 40 41 42 43 44 45 46 47 48 49 50
000
ASUS44 KBMX 221510
RWRAL

ALABAMA REGIONAL WEATHER ROUNDUP
NATIONAL WEATHER SERVICE BIRMINGHAM AL
900 AM CST SUN JAN 22 2017

NOTE: "FAIR" INDICATES FEW OR NO CLOUDS BELOW 12,000 FEET
WITH NO SIGNIFICANT WEATHER AND/OR OBSTRUCTIONS TO VISIBILITY.

THE REMARK "TC" DENOTES TEMPERATURE IN DEGREES CELSIUS.

ALZ001>011-014-016>018-020-221600-
NORTH ALABAMA

CITY           SKY/WX    TMP DP  RH WIND       PRES   REMARKS
MUSCLE SHOALS  CLOUDY    57  54  89 SE7       29.44F
HUNTSVILLE     PTSUNNY   57  56  96 E7        29.46S
DECATUR        CLOUDY    56  56 100 E5        29.46F
HALEYVILLE     CLOUDY    56  55  97 S12       29.48R
GADSDEN        PTSUNNY   60  58  92 SE7       29.49F
$$

ALZ012-013-022-023-030>036-040>044-221600-
WEST CENTRAL ALABAMA

CITY           SKY/WX    TMP DP  RH WIND       PRES   REMARKS
TUSCALOOSA     FOG       57  57 100 CALM      29.47F VSB 1/4
$$

ALZ015-024>027-033>036-040>044-221600-
CENTRAL ALABAMA

CITY           SKY/WX    TMP DP  RH WIND       PRES   REMARKS
BIRMINGHAM     CLOUDY    61  60  97 S10       29.51R
MONTGOMERY     CLOUDY    66  62  87 N3        29.48F FOG
SHELBY CO ARPT CLOUDY    63  62  97 CALM      29.48F FOG
MAXWELL AFB    CLOUDY    64  64 100 N5        29.47F FOG
GREENVILLE     CLOUDY    67  65  93 CALM      29.45F FOG
$$

ALZ019-021-028-029-037-038-045>048-221600-
EAST CENTRAL ALABAMA

CITY           SKY/WX    TMP DP  RH WIND       PRES   REMARKS
ANNISTON       CLOUDY    61  59  93 NE8       29.51S
ALEXANDER CITY CLOUDY    62  61  96 CALM      29.51S FOG
AUBURN         CLOUDY    62  62 100 CALM      29.52F FOG
$$

ALZ051>064-221600-
SOUTHWEST ALABAMA

CITY           SKY/WX    TMP DP  RH WIND       PRES   REMARKS
MOBILE         PTSUNNY   68  65  90 CALM      29.42S FOG
BROOKLEY FIELD CLOUDY    70  68  93 CALM      29.42F FOG
EVERGREEN      CLOUDY    71  66  84 VRB3      29.43F
$$

ALZ049-050-065>069-221600-
SOUTHEAST ALABAMA

CITY           SKY/WX    TMP DP  RH WIND       PRES   REMARKS
DOTHAN         PTSUNNY   71  70  96 S3        29.51F FOG
OZARK          MOSUNNY   70  70 100 VRB3      29.46F
TROY           MOSUNNY   68  67  96 CALM      29.46F FOG
EUFAULA        FOG       65  63  93 NE3       29.46F VSB 1/2
$$



USA.gov is the U.S. government's official web portal to all federal, state and local government web resources and services.